FW8773 Weather Reports


Display with metric or nautical units.
time (UTC)temp
F
wind
direction
speed
MPH
gust
MPH
rain 1hr
in
rain 24hr
in
rain mn
in
humidity
%
barometer
mb
20260504191534 83 360 2.0 6.0 0.00 0.00 0.00 18 1000.9
20260504190035 82 360 0.0 7.0 0.00 0.00 0.00 19 1001.2
20260504184526 79 360 3.0 13.0 0.00 0.00 0.00 20 1001.3
20260504183028 80 5 4.0 11.0 0.00 0.00 0.00 20 1001.4
20260504181522 78 292 3.0 10.0 0.00 0.00 0.00 20 1001.7
20260504180018 77 47 6.0 12.0 0.00 0.00 0.00 21 1002.1
20260504174515 76 46 5.0 14.0 0.00 0.00 0.00 22 1002.1
20260504173015 76 64 5.0 14.0 0.00 0.00 0.00 23 1002.3
20260504171532 77 13 8.0 13.0 0.00 0.00 0.00 22 1002.5
20260504130117 48 360 5.0 11.0 0.00 0.00 0.00 65 1003.0
20260504081526 47 304 0.0 1.0 0.00 0.00 0.00 60 1003.7
20260504044547 57 98 0.0 3.0 0.00 0.00 0.00 46 1005.0
20260504043047 58 98 1.0 7.0 0.00 0.00 0.00 45 1005.2
20260504041549 59 84 1.0 7.0 0.00 0.00 0.00 43 1005.5
20260504040045 60 83 4.0 9.0 0.00 0.00 0.00 42 1005.5
20260504034600 61 99 6.0 9.0 0.00 0.00 0.00 41 1005.6
20260504033044 62 80 5.0 10.0 0.00 0.00 0.00 40 1005.5
20260504031544 62 67 5.0 10.0 0.00 0.00 0.00 38 1005.6
20260504030044 63 88 6.0 10.0 0.00 0.00 0.00 36 1005.4
20260504024543 64 93 6.0 10.0 0.00 0.00 0.00 35 1005.3
20260504023042 66 86 3.0 10.0 0.00 0.00 0.00 33 1005.2
20260504021541 68 102 4.0 9.0 0.00 0.00 0.00 31 1005.2
20260504020040 69 83 4.0 9.0 0.00 0.00 0.00 30 1005.0
20260504014552 70 75 5.0 9.0 0.00 0.00 0.00 29 1004.9
20260504013039 72 72 6.0 10.0 0.00 0.00 0.00 26 1005.0
20260504011542 74 66 3.0 7.0 0.00 0.00 0.00 23 1004.8
20260504010037 76 66 3.0 8.0 0.00 0.00 0.00 22 1005.0
20260504004535 77 67 3.0 9.0 0.00 0.00 0.00 21 1004.9
20260504003040 76 42 3.0 7.0 0.00 0.00 0.00 22 1005.0
20260504001534 77 42 4.0 9.0 0.00 0.00 0.00 20 1005.0
20260504000031 78 18 4.0 9.0 0.00 0.00 0.00 19 1005.3
20260503234542 80 16 6.0 10.0 0.00 0.00 0.00 19 1005.3
20260503233030 80 57 2.0 5.0 0.00 0.00 0.00 18 1005.4
20260503231528 79 336 2.0 10.0 0.00 0.00 0.00 18 1005.7
20260503230028 80 348 2.0 8.0 0.00 0.00 0.00 19 1005.7
20260503224524 80 360 2.0 9.0 0.00 0.00 0.00 18 1005.8
20260503223023 80 360 7.0 12.0 0.00 0.00 0.00 18 1005.8
20260503221523 80 34 1.0 6.0 0.00 0.00 0.00 18 1006.1
20260503220037 82 360 8.0 11.0 0.00 0.00 0.00 18 1006.3
20260503214516 82 60 0.0 4.0 0.00 0.00 0.00 18 1006.7
20260503213014 82 76 2.0 11.0 0.00 0.00 0.00 19 1006.8
20260503211510 80 79 0.0 11.0 0.00 0.00 0.00 21 1007.2
20260503210006 78 19 3.0 10.0 0.00 0.00 0.00 21 1007.5
20260503204505 78 36 3.0 11.0 0.00 0.00 0.00 22 1007.8
20260503203003 78 11 3.0 13.0 0.00 0.00 0.00 22 1007.9
20260503201502 78 20 5.0 12.0 0.00 0.00 0.00 22 1008.0
20260503200105 78 57 9.0 33.0 0.00 0.00 0.00 22 1007.9
20260503194559 78 27 5.0 11.0 0.00 0.00 0.00 22 1008.3
20260503193110 78 71 5.0 14.0 0.00 0.00 0.00 22 1008.5